CW4114 Weather Reports


Display with metric or nautical units.
time (UTC)temp
F
wind
direction
speed
MPH
gust
MPH
rain 1hr
in
rain 24hr
in
rain mn
in
humidity
%
barometer
mb
20260905164838 70 78 6.0 9.0 0.00 0.00 0.00 81 1017.0
20260905164326 70 62 4.0 7.0 0.00 0.00 0.00 83 1017.1
20260905163825 70 85 4.0 7.0 0.00 0.00 0.00 81 1017.1
20260905163326 70 75 5.0 9.0 0.00 0.00 0.00 81 1017.3
20260905163052 70 59 4.0 9.0 0.00 0.00 0.00 84 1017.2
20260905162547 70 114 4.0 7.0 0.00 0.00 0.00 81 1017.1
20260905161822 70 63 4.0 9.0 0.00 0.00 0.00 83 1017.2
20260905161321 70 63 6.0 10.0 0.00 0.00 0.00 81 1017.2
20260905160820 69 62 5.0 10.0 0.00 0.00 0.00 83 1017.1
20260905160320 70 35 6.0 9.0 0.00 0.00 0.00 83 1017.2
20260905160043 70 75 5.0 9.0 0.00 0.00 0.00 83 1017.2
20260905155320 71 83 3.0 7.0 0.00 0.00 0.00 84 1017.0
20260905154821 69 83 4.0 9.0 0.00 0.00 0.00 84 1016.9
20260905154318 69 82 6.0 9.0 0.00 0.00 0.00 83 1016.9
20260905154044 70 47 6.0 9.0 0.00 0.00 0.00 83 1016.9
20260905153318 70 63 4.0 7.0 0.00 0.00 0.00 83 1016.9
20260905152816 70 82 4.0 7.0 0.00 0.00 0.00 84 1016.9
20260905152314 70 83 4.0 9.0 0.00 0.00 0.00 84 1016.9
20260905151814 70 89 6.0 9.0 0.00 0.00 0.00 83 1016.8
20260905151314 70 100 4.0 9.0 0.00 0.00 0.00 84 1016.8
20260905150815 70 92 4.0 9.0 0.00 0.00 0.00 85 1016.7
20260905150313 69 51 4.0 11.0 0.00 0.00 0.00 84 1016.7
20260905145813 69 95 6.0 11.0 0.00 0.00 0.00 85 1016.5
20260905145312 69 97 6.0 10.0 0.00 0.00 0.00 85 1016.6
20260905144807 69 92 5.0 9.0 0.00 0.00 0.00 86 1016.6
20260905144307 70 79 6.0 9.0 0.00 0.00 0.00 85 1016.6
20260905143804 70 45 4.0 10.0 0.00 0.00 0.00 86 1016.5
20260905143304 69 92 5.0 10.0 0.00 0.00 0.00 85 1016.6
20260905142306 69 80 4.0 10.0 0.00 0.00 0.00 85 1016.4
20260905141808 69 135 3.0 10.0 0.00 0.00 0.00 86 1016.4
20260905141542 69 73 5.0 10.0 0.00 0.00 0.00 85 1016.2
20260905140805 69 80 4.0 10.0 0.00 0.00 0.00 86 1016.3
20260905140303 69 62 4.0 9.0 0.00 0.00 0.00 87 1016.3
20260905135804 69 78 5.0 9.0 0.00 0.00 0.00 86 1016.3
20260905135307 69 78 4.0 7.0 0.00 0.00 0.00 87 1016.3
20260905134818 68 89 4.0 7.0 0.00 0.00 0.00 88 1016.4
20260905134305 68 73 5.0 7.0 0.00 0.00 0.00 88 1016.4
20260905133802 68 100 4.0 6.0 0.00 0.00 0.00 88 1016.4
20260905133303 68 89 3.0 9.0 0.00 0.00 0.00 88 1016.3
20260905132800 68 44 3.0 9.0 0.00 0.00 0.00 89 1016.3
20260905132300 68 86 3.0 7.0 0.00 0.00 0.00 90 1016.3
20260905131258 68 76 3.0 6.0 0.00 0.00 0.00 92 1016.4
20260905130759 67 110 3.0 6.0 0.00 0.00 0.00 93 1016.2
20260905130523 67 49 3.0 6.0 0.00 0.00 0.00 95 1016.2
20260905125757 67 69 3.0 6.0 0.00 0.00 0.00 95 1016.2
20260905125530 67 92 2.0 5.0 0.00 0.00 0.00 97 1016.2
20260905124755 66 92 3.0 5.0 0.00 0.00 0.00 98 1016.1
20260905124258 65 63 3.0 5.0 0.00 0.00 0.00 99 1016.1
20260905123755 65 75 1.0 5.0 0.00 0.00 0.00 99 1016.0
20260905123256 64 116 1.0 5.0 0.00 0.00 0.00 99 1016.1
20260905122754 63 63 3.0 5.0 0.00 0.00 0.00 99 1016.1
20260905122257 62 58 1.0 5.0 0.00 0.00 0.00 99 1016.1
20260905121753 60 63 1.0 4.0 0.00 0.00 0.00 99 1016.0
20260905121254 59 54 1.0 2.0 0.00 0.00 0.00 98 1016.0
20260905120752 58 290 0.0 0.0 0.00 0.00 0.00 98 1016.0
20260905120251 58 274 0.0 0.0 0.00 0.00 0.00 98 1015.9
20260905115750 57 272 0.0 0.0 0.00 0.01 0.00 98 1015.9
20260905115252 57 272 0.0 0.0 0.00 0.01 0.00 98 1015.9
20260905114751 56 272 0.0 1.0 0.00 0.03 0.00 98 1015.8
20260905114251 56 272 0.0 2.0 0.00 0.03 0.00 98 1015.8
20260905113751 56 272 0.0 2.0 0.00 0.03 0.00 98 1015.8
20260905113250 56 272 0.0 1.0 0.00 0.03 0.00 98 1015.8
20260905112750 56 272 0.0 2.0 0.00 0.03 0.00 98 1015.9
20260905112249 56 282 0.0 2.0 0.00 0.03 0.00 98 1015.8
20260905111749 56 281 0.0 1.0 0.00 0.03 0.00 98 1015.8
20260905111249 56 282 0.0 2.0 0.00 0.03 0.00 98 1015.7
20260905110748 56 282 0.0 2.0 0.00 0.03 0.00 98 1015.7
20260905110515 56 282 0.0 2.0 0.00 0.03 0.00 98 1015.7
20260905105747 56 282 1.0 2.0 0.00 0.03 0.00 98 1015.6
20260905105248 56 285 1.0 2.0 0.00 0.03 0.00 98 1015.6
20260905104747 56 286 1.0 2.0 0.00 0.03 0.00 98 1015.5
20260905104247 57 272 0.0 2.0 0.00 0.03 0.00 98 1015.4
20260905103748 57 274 1.0 2.0 0.00 0.03 0.00 98 1015.5
20260905103246 57 274 0.0 1.0 0.00 0.03 0.00 98 1015.4
20260905102746 57 274 0.0 2.0 0.00 0.03 0.00 98 1015.4
20260905102246 57 275 1.0 2.0 0.00 0.03 0.00 98 1015.4
20260905101747 57 274 1.0 2.0 0.00 0.03 0.00 98 1015.3
20260905101245 57 272 1.0 2.0 0.00 0.03 0.00 98 1015.4
20260905100746 57 271 0.0 1.0 0.00 0.03 0.00 98 1015.4
20260905100243 58 271 0.0 2.0 0.00 0.03 0.00 98 1015.5
20260905095739 58 271 0.0 2.0 0.00 0.03 0.00 98 1015.4
20260905095239 58 272 1.0 2.0 0.00 0.03 0.00 98 1015.3
20260905094742 58 272 1.0 2.0 0.00 0.03 0.00 98 1015.3
20260905094239 58 271 1.0 3.0 0.00 0.03 0.00 98 1015.2
20260905093740 58 274 2.0 3.0 0.00 0.03 0.00 98 1015.2
20260905093238 58 282 2.0 3.0 0.00 0.03 0.00 98 1015.1
20260905092738 58 276 1.0 3.0 0.00 0.03 0.00 98 1015.2
20260905092236 58 283 2.0 3.0 0.00 0.03 0.00 98 1015.1
20260905091735 58 269 2.0 3.0 0.00 0.03 0.00 98 1015.2
20260905091234 58 278 1.0 2.0 0.00 0.03 0.00 98 1015.2
20260905091000 58 278 1.0 3.0 0.00 0.03 0.00 98 1014.9
20260905090234 58 278 1.0 3.0 0.00 0.03 0.00 98 1014.9
20260905090006 58 279 1.0 2.0 0.00 0.03 0.00 98 1015.1
20260905085233 58 268 1.0 2.0 0.00 0.03 0.00 98 1015.1
20260905084736 58 282 0.0 2.0 0.00 0.03 0.00 98 1014.9
20260905084233 58 282 1.0 2.0 0.00 0.03 0.00 98 1015.1
20260905083732 58 282 1.0 2.0 0.00 0.03 0.00 98 1015.1
20260905083233 58 282 1.0 2.0 0.00 0.03 0.00 97 1015.1
20260905082732 58 282 0.0 2.0 0.00 0.03 0.00 97 1015.1
20260905082233 58 282 1.0 2.0 0.00 0.03 0.00 97 1014.9
20260905082004 58 282 1.0 2.0 0.00 0.03 0.00 97 1014.9
20260905081232 58 282 1.0 2.0 0.00 0.03 0.00 97 1014.9
20260905080733 58 282 0.0 0.0 0.00 0.03 0.00 98 1014.9
20260905080236 58 282 0.0 0.0 0.00 0.03 0.00 97 1014.9
20260905075732 58 282 0.0 1.0 0.00 0.03 0.00 97 1014.9
20260905075233 58 282 0.0 2.0 0.00 0.03 0.00 97 1014.8
20260905074732 59 282 1.0 2.0 0.00 0.03 0.00 97 1014.8
20260905074234 59 279 1.0 2.0 0.00 0.03 0.00 97 1014.8
20260905074007 59 279 0.0 2.0 0.00 0.03 0.00 98 1014.8
20260905073233 59 279 2.0 2.0 0.00 0.03 0.00 97 1014.8
20260905072732 59 281 2.0 2.0 0.00 0.03 0.00 97 1014.8
20260905072233 59 251 1.0 2.0 0.00 0.03 0.00 97 1014.8
20260905071732 59 251 1.0 2.0 0.00 0.03 0.00 97 1014.8
20260905071459 59 251 1.0 2.0 0.00 0.03 0.00 97 1014.7
20260905070731 59 251 0.0 1.0 0.00 0.03 0.00 97 1014.7
20260905070233 59 251 0.0 2.0 0.00 0.03 0.00 97 1014.6
20260905065731 60 251 1.0 2.0 0.00 0.03 0.00 97 1014.7
20260905065231 60 251 1.0 2.0 0.00 0.03 0.00 97 1014.7
20260905064732 60 251 1.0 2.0 0.00 0.03 0.00 97 1014.7
20260905064233 60 274 0.0 1.0 0.00 0.03 0.00 97 1014.6
20260905063731 60 276 1.0 1.0 0.00 0.03 0.00 97 1014.6
20260905063231 60 276 1.0 2.0 0.00 0.03 0.00 97 1014.7
20260905062730 60 276 1.0 2.0 0.00 0.03 0.00 97 1014.7
20260905062231 61 276 0.0 1.0 0.00 0.03 0.00 97 1014.6
20260905061730 61 276 0.0 2.0 0.00 0.03 0.00 97 1014.7
20260905061230 61 276 1.0 2.0 0.00 0.03 0.00 97 1014.7
20260905060730 61 275 1.0 2.0 0.00 0.03 0.00 97 1014.7
20260905060232 61 269 1.0 2.0 0.00 0.03 0.00 97 1014.8
20260905055729 61 269 1.0 2.0 0.00 0.03 0.00 97 1014.8
20260905054729 61 89 1.0 2.0 0.00 0.03 0.00 97 1014.8
20260905054229 62 90 1.0 2.0 0.00 0.03 0.00 97 1014.8
20260905053725 62 85 1.0 2.0 0.00 0.03 0.00 97 1014.8
20260905053223 62 85 1.0 2.0 0.00 0.03 0.00 97 1014.8
20260905052723 62 87 0.0 0.0 0.00 0.03 0.00 97 1014.8
20260905052224 62 86 0.0 2.0 0.00 0.03 0.00 97 1014.9
20260905051719 63 85 1.0 2.0 0.00 0.03 0.00 97 1014.8
20260905051220 63 86 0.0 0.0 0.00 0.03 0.00 97 1014.8
20260905050719 63 89 0.0 0.0 0.00 0.03 0.00 97 1014.7
20260905050222 63 89 0.0 0.0 0.00 0.03 0.00 97 1014.8
20260905045720 63 89 0.0 0.0 0.00 0.03 0.00 97 1014.9
20260905045216 63 89 0.0 0.0 0.00 0.03 0.00 97 1014.9
20260905044714 64 89 0.0 0.0 0.00 0.03 0.00 97 1014.8
20260905044214 64 89 0.0 0.0 0.00 0.03 0.00 97 1014.8
20260905043714 64 89 0.0 0.0 0.00 0.03 0.00 97 1014.8
20260905043215 64 89 0.0 1.0 0.00 0.03 0.00 97 1014.8
20260905042713 64 89 0.0 1.0 0.00 0.03 0.00 97 1014.8
20260905042446 64 89 0.0 1.0 0.00 0.03 0.00 97 1014.7
20260905041712 64 89 0.0 2.0 0.00 0.03 0.00 97 1014.8
20260905041214 64 89 0.0 2.0 0.00 0.03 0.00 97 1014.9
20260905040711 64 87 0.0 2.0 0.00 0.03 0.00 97 1014.9
20260905040213 64 90 1.0 2.0 0.00 0.03 0.00 97 1014.9
20260905035707 64 89 0.0 2.0 0.00 0.03 0.03 97 1014.9
20260905035439 64 138 0.0 0.0 0.00 0.03 0.03 97 1014.9
20260905034706 64 138 0.0 0.0 0.00 0.03 0.03 97 1014.9
20260905034206 64 138 0.0 0.0 0.00 0.03 0.03 97 1015.1
20260905033707 64 138 0.0 0.0 0.00 0.03 0.03 96 1015.2
20260905033206 63 138 0.0 0.0 0.00 0.03 0.03 96 1015.2
20260905032706 64 140 0.0 0.0 0.00 0.03 0.03 96 1015.1
20260905031705 64 142 0.0 0.0 0.00 0.03 0.03 96 1015.3
20260905031205 64 142 0.0 0.0 0.00 0.03 0.03 96 1015.2
20260905030704 64 142 0.0 0.0 0.00 0.03 0.03 96 1015.2
20260905030205 64 142 0.0 0.0 0.00 0.03 0.03 96 1015.3
20260905025707 64 142 0.0 0.0 0.00 0.03 0.03 96 1015.3
20260905025206 65 142 0.0 0.0 0.00 0.03 0.03 96 1015.2
20260905024705 65 142 0.0 0.0 0.00 0.03 0.03 96 1015.4
20260905024206 65 144 0.0 0.0 0.00 0.03 0.03 96 1015.3
20260905023705 65 144 0.0 1.0 0.00 0.03 0.03 96 1015.2
20260905023207 65 144 0.0 2.0 0.00 0.03 0.03 96 1015.2
20260905022934 65 141 0.0 2.0 0.00 0.03 0.03 96 1015.1
20260905022205 65 137 0.0 2.0 0.00 0.03 0.03 96 1015.2
20260905021935 65 140 0.0 3.0 0.00 0.03 0.03 96 1015.2
20260905021205 66 145 1.0 3.0 0.00 0.03 0.03 96 1015.1
20260905020204 66 100 2.0 4.0 0.00 0.03 0.03 95 1015.3
20260905015706 66 100 0.0 3.0 0.00 0.03 0.03 95 1015.2
20260905015207 66 62 2.0 4.0 0.00 0.03 0.03 95 1015.1
20260905014706 66 96 0.0 4.0 0.00 0.03 0.03 95 1015.1
20260905014204 66 75 2.0 4.0 0.00 0.03 0.03 95 1015.2
20260905013702 66 100 1.0 4.0 0.00 0.03 0.03 95 1015.2
20260905013204 66 62 2.0 4.0 0.00 0.03 0.03 95 1015.2
20260905012704 66 69 2.0 3.0 0.00 0.03 0.03 95 1015.2
20260905012203 66 83 0.0 2.0 0.00 0.03 0.03 95 1015.1
20260905011929 66 106 1.0 2.0 0.00 0.03 0.03 95 1015.1
20260905011434 66 71 1.0 2.0 0.00 0.03 0.03 94 1015.1
20260905010703 66 76 2.0 3.0 0.00 0.03 0.03 94 1014.9
20260905010206 66 72 0.0 3.0 0.00 0.03 0.03 94 1014.8
20260905005658 66 65 0.0 3.0 0.00 0.03 0.03 94 1014.8
20260905005200 66 62 1.0 3.0 0.00 0.03 0.03 93 1014.7
20260905004654 66 97 0.0 0.0 0.00 0.03 0.03 93 1014.7
20260905004156 67 97 0.0 0.0 0.00 0.03 0.03 93 1014.6
20260905003153 67 97 0.0 0.0 0.00 0.03 0.03 93 1014.6
20260905002653 67 97 0.0 0.0 0.00 0.03 0.03 93 1014.5
20260905002152 67 100 0.0 0.0 0.00 0.03 0.03 92 1014.4
20260905001651 67 99 0.0 1.0 0.00 0.03 0.03 92 1014.5
20260905001152 67 99 0.0 2.0 0.00 0.03 0.03 92 1014.4
20260905000650 67 82 0.0 2.0 0.00 0.03 0.03 92 1014.4
20260905000153 68 78 0.0 2.0 0.00 0.03 0.03 92 1014.4
20260904235647 68 65 1.0 2.0 0.00 0.03 0.03 92 1014.4
20260904235147 68 80 1.0 2.0 0.00 0.03 0.03 91 1014.3
20260904234646 68 76 1.0 2.0 0.00 0.03 0.03 91 1014.3
20260904234146 68 89 1.0 2.0 0.00 0.03 0.03 91 1014.3
20260904233645 68 89 0.0 2.0 0.00 0.03 0.03 91 1014.4
20260904233146 68 90 0.0 2.0 0.00 0.03 0.03 91 1014.3
20260904232645 68 90 0.0 2.0 0.00 0.03 0.03 91 1014.3
20260904232146 68 87 1.0 2.0 0.00 0.03 0.03 91 1014.1
20260904231646 68 69 1.0 2.0 0.00 0.03 0.03 92 1014.2
20260904231146 68 75 0.0 1.0 0.00 0.03 0.03 92 1014.2
20260904230642 68 134 0.0 3.0 0.00 0.03 0.03 92 1014.2
20260904230146 68 117 1.0 4.0 0.00 0.03 0.03 92 1014.0
20260904225642 68 114 1.0 4.0 0.00 0.03 0.03 92 1014.0
20260904225141 68 90 2.0 4.0 0.00 0.03 0.03 92 1014.0
20260904224905 68 79 3.0 4.0 0.00 0.03 0.03 92 1014.0
20260904224139 68 66 2.0 4.0 0.00 0.03 0.03 92 1014.1
20260904223639 68 117 2.0 4.0 0.00 0.03 0.03 92 1014.0
20260904223140 68 68 2.0 5.0 0.00 0.03 0.03 92 1014.0
20260904222638 68 68 3.0 5.0 0.00 0.03 0.03 92 1013.9
20260904222139 68 76 2.0 4.0 0.00 0.03 0.03 92 1013.9
20260904221905 68 83 2.0 4.0 0.00 0.03 0.03 92 1013.9
20260904221142 68 82 2.0 4.0 0.00 0.03 0.03 92 1014.0
20260904220636 68 113 2.0 5.0 0.00 0.03 0.03 92 1014.0
20260904220143 68 102 3.0 5.0 0.00 0.03 0.03 91 1014.1
20260904215558 68 103 2.0 5.0 0.00 0.03 0.03 91 1014.0
20260904215058 69 51 3.0 5.0 0.00 0.03 0.03 91 1014.0
20260904214559 69 80 2.0 4.0 0.00 0.03 0.03 90 1014.0
20260904214057 69 51 2.0 4.0 0.00 0.03 0.03 89 1014.0
20260904213558 69 97 2.0 6.0 0.00 0.03 0.03 89 1014.1
20260904213057 69 89 2.0 6.0 0.00 0.03 0.03 88 1013.9
20260904212556 69 95 3.0 5.0 0.00 0.03 0.03 86 1013.9
20260904212055 69 90 2.0 5.0 0.00 0.03 0.03 84 1013.9
20260904211556 70 89 3.0 5.0 0.00 0.03 0.03 82 1014.0
20260904211057 70 61 2.0 4.0 0.00 0.03 0.03 82 1014.0
20260904210556 70 78 2.0 0.0 0.00 0.03 0.03 82 1014.0
20260904205702 70 90 2.0 5.0 0.00 0.03 0.03 82 1013.9
20260904205202 70 111 2.0 5.0 0.00 0.03 0.03 81 1013.9
20260904204934 70 95 2.0 5.0 0.00 0.03 0.03 81 1013.9
20260904204203 70 138 1.0 5.0 0.00 0.03 0.03 83 1013.9
20260904203702 70 145 3.0 5.0 0.00 0.03 0.03 83 1014.0
20260904203202 70 104 3.0 6.0 0.00 0.03 0.03 83 1014.1
20260904202704 69 92 4.0 6.0 0.00 0.03 0.03 83 1014.0
20260904202202 69 89 2.0 6.0 0.00 0.03 0.03 83 1014.2
20260904201935 69 92 2.0 6.0 0.00 0.03 0.03 83 1014.1
20260904201600 70 179 3.0 6.0 0.00 0.03 0.03 85 1014.2
20260904200741 69 71 3.0 6.0 0.00 0.03 0.03 85 1014.1
20260904200228 69 90 3.0 6.0 0.00 0.03 0.03 85 1014.2
20260904195659 69 95 3.0 9.0 0.00 0.03 0.03 86 1014.1
20260904195525 69 110 2.0 11.0 0.00 0.03 0.03 90 1014.0
20260904195417 69 107 1.0 10.0 0.00 0.03 0.03 89 1014.1
20260904194158 68 110 4.0 12.0 0.00 0.03 0.03 91 1014.0
20260904193659 68 111 5.0 12.0 0.00 0.03 0.03 91 1014.0
20260904193157 68 89 6.0 12.0 0.00 0.03 0.03 92 1014.0
20260904192657 68 90 7.0 11.0 0.00 0.03 0.03 92 1014.0
20260904192155 68 102 6.0 11.0 0.00 0.03 0.03 92 1014.1
20260904191655 68 111 4.0 11.0 0.00 0.03 0.03 92 1014.2
20260904191156 68 103 5.0 11.0 0.00 0.03 0.03 92 1014.2
20260904190655 68 103 4.0 11.0 0.00 0.03 0.03 92 1014.2
20260904185635 68 103 5.0 10.0 0.00 0.03 0.03 92 1014.2
20260904185135 68 87 4.0 10.0 0.00 0.03 0.03 91 1014.2
20260904184636 68 118 4.0 10.0 0.00 0.03 0.03 91 1014.3
20260904184134 68 99 4.0 9.0 0.00 0.03 0.03 90 1014.3
20260904183637 68 113 5.0 9.0 0.00 0.03 0.03 90 1014.3
20260904183407 68 87 5.0 9.0 0.00 0.03 0.03 90 1014.3
20260904182635 68 92 3.0 6.0 0.00 0.03 0.03 90 1014.5
20260904182134 68 126 4.0 7.0 0.00 0.03 0.03 90 1014.5
20260904181634 67 95 2.0 7.0 0.00 0.03 0.03 90 1014.6
20260904181132 68 82 3.0 7.0 0.00 0.03 0.03 90 1014.7
20260904180906 68 145 3.0 7.0 0.00 0.03 0.03 90 1014.4
20260904175504 68 68 3.0 6.0 0.00 0.03 0.03 89 1014.5
20260904175007 68 99 3.0 7.0 0.00 0.03 0.03 89 1014.6
20260904174503 68 89 5.0 7.0 0.00 0.03 0.03 88 1014.6
20260904174005 69 110 3.0 7.0 0.00 0.03 0.03 88 1014.5
20260904173004 70 97 4.0 7.0 0.00 0.03 0.03 87 1014.4
20260904172502 70 121 3.0 10.0 0.00 0.03 0.03 88 1014.2
20260904172006 69 93 3.0 10.0 0.00 0.03 0.03 89 1014.1
20260904171503 68 85 5.0 10.0 0.00 0.03 0.03 89 1014.0
20260904171003 68 113 4.0 10.0 0.00 0.03 0.03 92 1014.1
20260904170502 67 69 5.0 10.0 0.00 0.03 0.03 92 1014.2
20260904170003 67 123 4.0 9.0 0.00 0.03 0.03 92 1014.3
20260904165503 67 103 4.0 9.0 0.00 0.03 0.03 92 1014.5